This demonstration page uses our WeatherBlox Daily Observations layout. Learn more.

Left ArrowRight Arrow

38.20091, -84.87328

Hourly Observations for July 31, 2017

Temp ( °F °C ) Dew Point ( °F °C ) Humidity (%) Winds ( mph kmh ) Pressure ( in mb ) Visibility ( mi km ) Precip ( " mm )
12:53 am 00:53 Clear 67 19.4 61 16.1 81 81 Calm 30.11 1020 10 16 0.00 0.00
1:53 am 01:53 Clear 65 18.3 61 16.1 87 87 NNW 3 6 30.11 1020 10 16 0.00 0.00
2:53 am 02:53 Clear 65 18.3 60 15.6 84 84 Calm 30.11 1020 10 16 0.00 0.00
3:53 am 03:53 Clear 63 17.2 59 15 87 87 Calm 30.11 1020 10 16 0.00 0.00
4:53 am 04:53 Clear 62 16.7 59 15 90 90 NNW 3 6 30.11 1020 10 16 0.00 0.00
5:53 am 05:53 Clear 62 16.7 58 14.4 86 86 N 3 6 30.12 1020 10 16 0.00 0.00
6:53 am 06:53 Sunny 61 16.1 58 14.4 90 90 Calm 30.14 1021 10 16 0.00 0.00
7:53 am 07:53 Sunny 66 18.9 60 15.6 81 81 Calm 30.14 1021 10 16 0.00 0.00
8:53 am 08:53 Sunny 72 22.2 63 17.2 73 73 ENE 3 6 30.15 1021 10 16 0.00 0.00
9:53 am 09:53 Sunny 76 24.4 64 17.8 67 67 ENE 3 6 30.16 1021 10 16 0.00 0.00
10:53 am 10:53 Sunny 81 27.2 64 17.8 57 57 VRB 3 6 30.16 1021 10 16 0.00 0.00
11:53 am 11:53 Mostly Sunny 84 28.9 64 17.8 51 51 ENE 6 9 30.16 1021 10 16 0.00 0.00
12:53 pm 12:53 Mostly Cloudy 85 29.4 61 16.1 45 45 undefined N/A 30.14 1021 10 16 0.00 0.00
1:53 pm 13:53 Partly Cloudy 86 30 59 15 40 40 E 3 6 30.13 1020 10 16 0.00 0.00
2:53 pm 14:53 Mostly Sunny 87 30.6 57 13.9 36 36 ENE 7 11 30.11 1020 10 16 0.00 0.00
3:53 pm 15:53 Mostly Cloudy 88 31.1 58 14.4 36 36 Calm 30.10 1019 10 16 0.00 0.00
4:53 pm 16:53 Partly Cloudy 87 30.6 58 14.4 37 37 VRB 3 6 30.09 1019 10 16 0.00 0.00
5:53 pm 17:53 Mostly Cloudy 87 30.6 58 14.4 37 37 E 6 9 30.08 1019 10 16 0.00 0.00
6:53 pm 18:53 Mostly Cloudy 85 29.4 59 15 42 42 SE 6 9 30.08 1019 10 16 0.00 0.00
7:53 pm 19:53 Mostly Sunny 83 28.3 59 15 44 44 Calm 30.07 1018 10 16 0.00 0.00
8:53 pm 20:53 Mostly Cloudy 79 26.1 63 17.2 58 58 Calm 30.08 1019 10 16 0.00 0.00
9:53 pm 21:53 Cloudy 76 24.4 66 18.9 72 72 Calm 30.09 1019 10 16 0.00 0.00
10:53 pm 22:53 Mostly Clear 76 24.4 64 17.8 67 67 Calm 30.10 1019 10 16 0.00 0.00
11:53 pm 23:53 Clear 73 22.8 64 17.8 74 74 Calm 30.09 1019 10 16 0.00 0.00

Powered by AerisWeather